sat.trackr.live / text

‹ back to catalog

STARLINK-36549

NORAD 67510 · 2026-012T

PAYLOAD ACTIVE UNKNOWN

§ Identity

Operator
Country
US
Launch date
2026-01-18
Launch site
AFETR
Launch vehicle
Mass (kg)
RCS (m²)

Purposes: comms

External: N2YO · Heavens-Above · Gunter

§ Orbital elements

Epoch: 2026-09-18T13:25:02.877312Z

Period
94.27 min
Inclination
43.0015°
Eccentricity
0.0001312
Mean motion
15.27584659 rev/d
Perigee alt
482.1 km
Apogee alt
483.9 km
Semi-major
6,861.2 km
B*
3.2241e-4
RAAN
304.7278°
Arg perigee
286.5825°
Mean anomaly
73.4883°
Rev number
3,726

§ Raw data

STARLINK-365491 67510U 26012T   26261.55906108  .00008621  00000+0  32241-3 0  99922 67510  43.0015 304.7278 0001312 286.5825  73.4883 15.27584659 37261

JSON: /api/v1/satellites/67510 · /tle

For live sub-satellite position, see the globe view (requires WebGL).

§ Visibility from observer

Set your observer location to see the next 7 days of passes ≥ 10°. The values pass through the URL so the page stays shareable.

No JS? Fill the form by hand. The geolocation button needs JavaScript.